Somerville, NJ

10:58 PM EDT on March 24, 2017 (GMT -0400)
Somerset

Weather History for KSMQ - May, 2014

Change the Weather History Date:

Monday, May 5, 2014

  Actual Average Record
Temperature  
Mean Temperature 58 °F -  
Max Temperature 68 °F 66 °F 90 °F (1944)
Min Temperature 48 °F 41 °F 29 °F (1966)
Degree Days  
Heating Degree Days 7    
Growing Degree Days 8 (Base 50)    
Moisture  
Dew Point 27 °F    
Average Humidity 33    
Maximum Humidity 57    
Minimum Humidity 16    
Precipitation  
Precipitation 0.00 in - - ()
Sea Level Pressure  
Sea Level Pressure 29.87 in    
Wind  
Wind Speed 11 mph (NW)    
Max Wind Speed 15 mph    
Max Gust Speed 25 mph    
Visibility 10 miles    
Events      
Averages and records for this station are not official NWS values.
T = Trace of Precipitation, MM = Missing Value Source: NWS Daily Summary

Daily Weather History Graph

Daily Weather History Graph

Search for Another Location

Airport or City:

Trip Planner

Search our weather history database for the weather conditions in past years. The results will help you decide how hot, cold, wet, or windy it might be!

Date:

Astronomy

May. 05, 2014 Rise Set
Actual Time 5:52 AM EDT 7:58 PM EDT
Civil Twilight 5:22 AM EDT 8:28 PM EDT
Nautical Twilight 4:45 AM EDT 9:05 PM EDT
Astronomical Twilight 4:05 AM EDT 9:46 PM EDT
Moon 11:09 AM EDT (5/5) 12:41 AM EDT (5/5)
Length of Visible Light 15h 06m
Length of Day
14h 06m
Waxing Crescent, 36% of the Moon is Illuminated
May 5
Waxing Crescent
May 6
First Quarter
May 14
Full
May 21
Last Quarter
May 28
New

Hourly Weather History & Observations

Time (EDT) Temp. Dew Point Humidity Pressure Visibility Wind Dir Wind Speed Gust Speed Precip Events Conditions
12:53 AM 54.0 °F 28.9 °F 38% 29.83 in 10.0 mi WNW 12.7 mph - N/A   Clear
1:53 AM 53.1 °F 30.0 °F 41% 29.83 in 10.0 mi NW 11.5 mph 21.9 mph N/A   Clear
2:53 AM 51.1 °F 30.9 °F 46% 29.83 in 10.0 mi NW 10.4 mph 18.4 mph N/A   Clear
3:53 AM 51.1 °F 32.0 °F 48% 29.84 in 10.0 mi NW 10.4 mph 19.6 mph N/A   Clear
4:53 AM 48.9 °F 33.1 °F 54% 29.85 in 10.0 mi NW 9.2 mph - N/A   Clear
5:53 AM 48.9 °F 34.0 °F 56% 29.87 in 10.0 mi NW 8.1 mph - N/A   Clear
6:53 AM 50.0 °F 35.1 °F 57% 29.91 in 10.0 mi NW 8.1 mph - N/A   Clear
7:53 AM 52.0 °F 34.0 °F 50% 29.92 in 10.0 mi NW 12.7 mph 21.9 mph N/A   Clear
8:53 AM 54.0 °F 33.1 °F 45% 29.92 in 10.0 mi NW 15.0 mph 24.2 mph N/A   Clear
9:53 AM 55.9 °F 32.0 °F 40% 29.92 in 10.0 mi NNW 10.4 mph 23.0 mph N/A   Clear
10:53 AM 59.0 °F 30.9 °F 35% 29.92 in 10.0 mi NW 15.0 mph 23.0 mph N/A   Clear
11:53 AM 61.0 °F 30.0 °F 31% 29.91 in 10.0 mi NW 13.8 mph 24.2 mph N/A   Clear
12:53 PM 64.0 °F 28.0 °F 26% 29.88 in 10.0 mi NNW 11.5 mph 17.3 mph N/A   Clear
1:53 PM 66.2 °F 26.6 °F 23% 29.86 in 10.0 mi Variable 6.9 mph 19.6 mph N/A   Clear
2:53 PM 66.9 °F 24.1 °F 20% 29.85 in 10.0 mi NW 13.8 mph 25.3 mph N/A   Clear
3:53 PM 68.0 °F 21.0 °F 17% 29.83 in 10.0 mi NW 11.5 mph 18.4 mph N/A   Clear
4:53 PM 66.9 °F 21.0 °F 17% 29.83 in 10.0 mi NW 13.8 mph 19.6 mph N/A   Clear
5:53 PM 66.0 °F 18.0 °F 16% 29.83 in 10.0 mi NNW 10.4 mph - N/A   Clear
6:53 PM 64.0 °F 23.0 °F 21% 29.83 in 10.0 mi Variable 5.8 mph - N/A   Clear
7:53 PM 63.0 °F 21.0 °F 20% 29.85 in 10.0 mi NW 10.4 mph - N/A   Clear
8:53 PM 60.1 °F 21.0 °F 22% 29.86 in 10.0 mi NNW 3.5 mph - N/A   Clear
9:53 PM 59.0 °F 19.0 °F 21% 29.89 in 10.0 mi NNW 5.8 mph - N/A   Clear
10:53 PM 57.9 °F 19.0 °F 22% 29.88 in 10.0 mi NNW 10.4 mph - N/A   Clear
11:53 PM 55.4 °F 23.0 °F 29% 29.88 in 10.0 mi North 4.6 mph - N/A   Clear